Location: Regona
(45.2000°N, 9.8167°E)
Time: 12:03:56
(UTC+00:00)

Cosmos 2151 - Pass Details

Date: 07 June 2020
Orbit: 581 x 601 km, 82.5° (Epoch: 01 July)

Event Time Altitude Azimuth Distance (km) Brightness Sun altitude
Exits shadow 01:40:30 10° 160° (SSE) 1,934 5.3 -14.8°
Reaches altitude 10° 01:40:31 10° 160° (SSE) 1,931 5.3 -14.8°
Maximum altitude 01:44:28 38° 92° (E) 923 4.2 -14.4°
Drops below altitude 10° 01:48:28 10° 24° (NNE) 1,953 7.0 -14.0°
Sets 01:50:48 0° 17° (NNE) 2,862 8.0 -13.8°
